TimePST,TemperatureF,Dew PointF,Humidity,Sea Level PressureIn,VisibilityMPH,Wind Direction,Wind SpeedMPH,Gust SpeedMPH,PrecipitationIn,Events,Conditions,WindDirDegrees,DateUTC
12:56 AM,35.1,14.0,42,30.25,10.0,West,5.8,-,N/A,,Clear,270,2012-12-10 08:56:00
1:56 AM,36.0,16.0,44,30.24,10.0,Calm,Calm,-,N/A,,Clear,0,2012-12-10 09:56:00
2:56 AM,30.9,12.9,47,30.25,10.0,NW,3.5,-,N/A,,Clear,320,2012-12-10 10:56:00
3:56 AM,34.0,17.1,50,30.25,10.0,SW,3.5,-,N/A,,Clear,220,2012-12-10 11:56:00
4:56 AM,28.9,12.9,51,30.27,10.0,West,3.5,-,N/A,,Clear,280,2012-12-10 12:56:00
5:56 AM,30.9,14.0,50,30.29,10.0,WSW,3.5,-,N/A,,Clear,250,2012-12-10 13:56:00
6:56 AM,30.9,16.0,54,30.30,10.0,Calm,Calm,-,N/A,,Clear,0,2012-12-10 14:56:00
7:56 AM,36.0,18.0,48,30.28,10.0,Calm,Calm,-,N/A,,Clear,0,2012-12-10 15:56:00
8:56 AM,46.0,19.0,34,30.29,10.0,NE,4.6,-,N/A,,Clear,50,2012-12-10 16:56:00
9:56 AM,51.1,19.9,29,30.29,10.0,Calm,Calm,-,N/A,,Clear,0,2012-12-10 17:56:00
10:56 AM,55.0,19.9,25,30.29,10.0,East,4.6,-,N/A,,Clear,90,2012-12-10 18:56:00
11:56 AM,61.0,19.9,21,30.25,10.0,ENE,5.8,-,N/A,,Clear,60,2012-12-10 19:56:00
12:56 PM,63.0,19.9,19,30.21,10.0,ENE,6.9,-,N/A,,Clear,70,2012-12-10 20:56:00
1:56 PM,64.9,19.9,18,30.17,10.0,Calm,Calm,-,N/A,,Clear,0,2012-12-10 21:56:00
2:56 PM,64.0,19.9,18,30.17,10.0,Calm,Calm,-,N/A,,Clear,0,2012-12-10 22:56:00
3:56 PM,64.0,19.9,18,30.15,10.0,Calm,Calm,-,N/A,,Clear,0,2012-12-10 23:56:00
4:56 PM,55.0,18.0,23,30.17,10.0,North,4.6,-,N/A,,Clear,360,2012-12-11 00:56:00
5:56 PM,50.0,18.0,28,30.18,10.0,WSW,5.8,-,N/A,,Clear,250,2012-12-11 01:56:00
6:56 PM,44.1,18.0,35,30.18,10.0,West,6.9,-,N/A,,Clear,270,2012-12-11 02:56:00
7:56 PM,42.1,18.0,38,30.19,10.0,West,8.1,-,N/A,,Clear,280,2012-12-11 03:56:00
8:56 PM,37.9,15.1,39,30.18,10.0,West,4.6,-,N/A,,Clear,280,2012-12-11 04:56:00
9:56 PM,39.0,18.0,43,30.17,10.0,Calm,Calm,-,N/A,,Clear,0,2012-12-11 05:56:00
10:56 PM,36.0,18.0,48,30.16,10.0,WNW,4.6,-,N/A,,Clear,290,2012-12-11 06:56:00
11:56 PM,32.0,14.0,48,30.15,10.0,NNE,3.5,-,N/A,,Clear,30,2012-12-11 07:56:00